| time (UTC) | temp F | wind direction | speed knots | gust knots | rain 1hr in | rain 24hr in | rain mn in | humidity % | barometer mb |
| 20260905020055 | 89 | 261 | 0.0 | 0.0 | 0.00 | 0.00 | 0.00 | 61 | 1012.0 |
| 20260905014557 | 89 | 261 | 0.0 | 0.0 | 0.00 | 0.00 | 0.00 | 58 | 1011.8 |
| 20260905013055 | 90 | 261 | 0.0 | 0.0 | 0.00 | 0.00 | 0.00 | 56 | 1011.7 |
| 20260905011559 | 91 | 261 | 0.0 | 0.0 | 0.00 | 0.00 | 0.00 | 55 | 1011.5 |
| 20260905010054 | 92 | 261 | 0.0 | 0.0 | 0.00 | 0.00 | 0.00 | 54 | 1011.3 |
| 20260905004559 | 93 | 261 | 0.0 | 0.0 | 0.00 | 0.00 | 0.00 | 51 | 1011.4 |
| 20260905003052 | 95 | 261 | 0.0 | 0.0 | 0.00 | 0.00 | 0.00 | 50 | 1011.4 |
| 20260905001552 | 96 | 261 | 0.0 | 0.0 | 0.00 | 0.00 | 0.00 | 47 | 1011.3 |
| 20260905000051 | 96 | 261 | 0.0 | 0.0 | 0.00 | 0.00 | 0.00 | 46 | 1011.3 |
| 20260904234552 | 97 | 261 | 0.0 | 0.0 | 0.00 | 0.00 | 0.00 | 45 | 1011.2 |
| 20260904233101 | 97 | 261 | 0.0 | 0.0 | 0.00 | 0.00 | 0.00 | 45 | 1011.2 |
| 20260904231551 | 97 | 257 | 0.0 | 0.0 | 0.00 | 0.00 | 0.00 | 45 | 1011.0 |
| 20260904230049 | 97 | 232 | 0.0 | 0.0 | 0.00 | 0.00 | 0.00 | 45 | 1011.1 |
| 20260904224548 | 98 | 229 | 0.0 | 0.0 | 0.00 | 0.00 | 0.00 | 42 | 1011.1 |
| 20260904223047 | 100 | 203 | 0.0 | 0.9 | 0.00 | 0.00 | 0.00 | 41 | 1011.1 |
| 20260904221548 | 100 | 216 | 0.0 | 2.6 | 0.00 | 0.00 | 0.00 | 40 | 1011.2 |
| 20260904220044 | 100 | 286 | 0.0 | 0.9 | 0.00 | 0.00 | 0.00 | 42 | 1011.3 |
| 20260904214547 | 99 | 238 | 0.0 | 2.6 | 0.00 | 0.00 | 0.00 | 41 | 1011.5 |
| 20260904213041 | 99 | 251 | 0.0 | 2.6 | 0.00 | 0.00 | 0.00 | 41 | 1011.7 |
| 20260904211539 | 99 | 216 | 0.0 | 0.9 | 0.00 | 0.00 | 0.00 | 41 | 1011.8 |
| 20260904210042 | 100 | 313 | 0.0 | 2.6 | 0.00 | 0.00 | 0.00 | 40 | 1012.0 |
| 20260904204535 | 99 | 172 | 0.0 | 0.9 | 0.00 | 0.00 | 0.00 | 39 | 1012.2 |
| 20260904203034 | 99 | 202 | 0.0 | 3.5 | 0.00 | 0.00 | 0.00 | 39 | 1012.5 |
| 20260904201531 | 99 | 294 | 0.0 | 3.5 | 0.00 | 0.00 | 0.00 | 42 | 1012.6 |
| 20260904200031 | 98 | 237 | 0.0 | 2.6 | 0.00 | 0.00 | 0.00 | 44 | 1012.9 |
| 20260904194527 | 98 | 241 | 0.0 | 5.2 | 0.00 | 0.00 | 0.00 | 44 | 1013.1 |
| 20260904193029 | 97 | 286 | 0.0 | 3.5 | 0.00 | 0.00 | 0.00 | 45 | 1013.3 |
| 20260904191521 | 97 | 233 | 0.0 | 1.7 | 0.00 | 0.00 | 0.00 | 45 | 1013.5 |
| 20260904190015 | 96 | 19 | 0.0 | 1.7 | 0.00 | 0.00 | 0.00 | 46 | 1013.6 |
| 20260904184521 | 95 | 243 | 0.0 | 0.9 | 0.00 | 0.00 | 0.00 | 47 | 1013.7 |
| 20260904183017 | 95 | 231 | 0.0 | 0.0 | 0.00 | 0.00 | 0.00 | 49 | 1013.7 |
| 20260904181513 | 96 | 256 | 0.0 | 1.7 | 0.00 | 0.00 | 0.00 | 47 | 1013.9 |
| 20260904180011 | 95 | 200 | 0.9 | 9.6 | 0.00 | 0.00 | 0.00 | 49 | 1013.9 |
| 20260904174510 | 95 | 225 | 0.0 | 7.8 | 0.00 | 0.00 | 0.00 | 48 | 1014.1 |
| 20260904173009 | 95 | 323 | 0.0 | 7.8 | 0.00 | 0.00 | 0.00 | 48 | 1014.3 |
| 20260904171509 | 95 | 192 | 0.0 | 7.0 | 0.00 | 0.00 | 0.00 | 48 | 1014.4 |
| 20260904170006 | 95 | 283 | 0.9 | 7.8 | 0.00 | 0.00 | 0.00 | 49 | 1014.5 |
| 20260904164504 | 94 | 239 | 0.9 | 7.8 | 0.00 | 0.00 | 0.00 | 50 | 1014.6 |
| 20260904163001 | 94 | 315 | 0.0 | 1.7 | 0.00 | 0.00 | 0.00 | 53 | 1014.7 |
| 20260904161602 | 93 | 265 | 0.0 | 2.6 | 0.00 | 0.00 | 0.00 | 53 | 1014.6 |
| 20260904160057 | 93 | 231 | 0.0 | 0.0 | 0.00 | 0.00 | 0.00 | 57 | 1014.7 |
| 20260904154553 | 91 | 303 | 0.0 | 2.6 | 0.00 | 0.00 | 0.00 | 59 | 1014.7 |
| 20260904153059 | 90 | 286 | 0.0 | 3.5 | 0.00 | 0.00 | 0.00 | 60 | 1014.7 |
| 20260904151545 | 89 | 247 | 1.7 | 7.0 | 0.00 | 0.00 | 0.00 | 61 | 1014.7 |
| 20260904150046 | 89 | 327 | 0.0 | 0.9 | 0.00 | 0.00 | 0.00 | 62 | 1014.5 |
| 20260904144539 | 88 | 339 | 0.0 | 2.6 | 0.00 | 0.00 | 0.00 | 64 | 1014.5 |
| 20260904143036 | 87 | 229 | 0.0 | 2.6 | 0.00 | 0.00 | 0.00 | 65 | 1014.3 |
| 20260904141534 | 86 | 226 | 0.0 | 4.3 | 0.00 | 0.00 | 0.00 | 67 | 1014.3 |
| 20260904140031 | 84 | 248 | 0.0 | 1.7 | 0.00 | 0.00 | 0.00 | 71 | 1014.3 |
| 20260904134531 | 83 | 280 | 0.0 | 1.7 | 0.00 | 0.00 | 0.00 | 72 | 1014.4 |
| 20260904133030 | 82 | 289 | 0.0 | 2.6 | 0.00 | 0.00 | 0.00 | 74 | 1014.4 |
| 20260904131529 | 81 | 274 | 0.0 | 0.0 | 0.00 | 0.00 | 0.00 | 75 | 1014.3 |
| 20260904130029 | 80 | 200 | 0.0 | 0.0 | 0.00 | 0.00 | 0.00 | 76 | 1014.4 |
| 20260904124527 | 80 | 200 | 0.0 | 0.0 | 0.00 | 0.00 | 0.00 | 78 | 1014.4 |
| 20260904123026 | 79 | 248 | 0.0 | 0.0 | 0.00 | 0.00 | 0.00 | 78 | 1014.1 |
| 20260904121525 | 78 | 248 | 0.0 | 0.0 | 0.00 | 0.00 | 0.00 | 79 | 1014.0 |
| 20260904120023 | 78 | 248 | 0.0 | 0.0 | 0.00 | 0.00 | 0.00 | 78 | 1014.0 |
| 20260904114535 | 79 | 248 | 0.0 | 0.0 | 0.00 | 0.00 | 0.00 | 77 | 1013.9 |
| 20260904113019 | 79 | 248 | 0.0 | 0.0 | 0.00 | 0.00 | 0.00 | 76 | 1013.7 |
| 20260904111515 | 80 | 248 | 0.0 | 0.0 | 0.00 | 0.00 | 0.00 | 75 | 1013.5 |
| 20260904110022 | 80 | 248 | 0.0 | 0.9 | 0.00 | 0.00 | 0.00 | 74 | 1013.4 |
| 20260904104513 | 80 | 281 | 0.0 | 0.0 | 0.00 | 0.00 | 0.00 | 74 | 1013.3 |
| 20260904103011 | 80 | 281 | 0.0 | 0.0 | 0.00 | 0.00 | 0.00 | 73 | 1013.1 |
| 20260904101516 | 80 | 281 | 0.0 | 0.0 | 0.00 | 0.00 | 0.00 | 73 | 1013.0 |
| 20260904100008 | 80 | 208 | 0.0 | 0.0 | 0.00 | 0.00 | 0.00 | 73 | 1012.9 |
| 20260904094506 | 81 | 208 | 0.0 | 0.0 | 0.00 | 0.00 | 0.00 | 73 | 1013.0 |
| 20260904093004 | 81 | 208 | 0.0 | 0.0 | 0.00 | 0.00 | 0.00 | 72 | 1012.9 |
| 20260904091502 | 82 | 208 | 0.0 | 0.0 | 0.00 | 0.00 | 0.00 | 70 | 1012.8 |
| 20260904090058 | 82 | 208 | 0.0 | 0.0 | 0.00 | 0.00 | 0.00 | 70 | 1012.7 |
| 20260904084559 | 82 | 208 | 0.0 | 0.0 | 0.00 | 0.00 | 0.00 | 70 | 1012.6 |
| 20260904083100 | 82 | 208 | 0.0 | 0.0 | 0.00 | 0.00 | 0.00 | 70 | 1012.6 |
| 20260904081556 | 82 | 208 | 0.0 | 0.0 | 0.00 | 0.00 | 0.00 | 70 | 1012.6 |
| 20260904080054 | 83 | 208 | 0.0 | 0.0 | 0.00 | 0.00 | 0.00 | 70 | 1012.5 |
| 20260904074615 | 83 | 208 | 0.0 | 0.0 | 0.00 | 0.00 | 0.00 | 69 | 1012.5 |
| 20260904073051 | 83 | 208 | 0.0 | 0.0 | 0.00 | 0.00 | 0.00 | 69 | 1012.5 |
| 20260904071551 | 83 | 208 | 0.0 | 0.0 | 0.00 | 0.00 | 0.00 | 68 | 1012.5 |
| 20260904070048 | 84 | 208 | 0.0 | 0.0 | 0.00 | 0.00 | 0.00 | 68 | 1012.5 |
| 20260904064547 | 84 | 208 | 0.0 | 0.0 | 0.00 | 0.00 | 0.00 | 68 | 1012.5 |
| 20260904063103 | 84 | 208 | 0.0 | 0.0 | 0.00 | 0.00 | 0.00 | 68 | 1012.6 |
| 20260904061544 | 84 | 208 | 0.0 | 0.9 | 0.00 | 0.00 | 0.00 | 67 | 1012.5 |
| 20260904060105 | 85 | 205 | 0.0 | 0.0 | 0.00 | 0.00 | 0.00 | 67 | 1012.6 |
| 20260904054542 | 85 | 192 | 0.0 | 0.0 | 0.00 | 0.00 | 0.00 | 67 | 1012.5 |
| 20260904053041 | 85 | 192 | 0.0 | 0.0 | 0.00 | 0.00 | 0.00 | 67 | 1012.6 |
| 20260904051539 | 85 | 192 | 0.0 | 0.0 | 0.00 | 0.00 | 0.00 | 67 | 1012.6 |
| 20260904050037 | 86 | 192 | 0.0 | 0.9 | 0.00 | 0.00 | 0.00 | 67 | 1012.5 |
| 20260904044546 | 86 | 221 | 0.0 | 0.0 | 0.00 | 0.00 | 0.00 | 66 | 1012.6 |
| 20260904043038 | 87 | 179 | 0.0 | 0.0 | 0.00 | 0.00 | 0.00 | 65 | 1012.6 |
| 20260904041535 | 87 | 271 | 0.0 | 0.0 | 0.00 | 0.00 | 0.00 | 64 | 1012.6 |
| 20260904040036 | 87 | 149 | 0.0 | 0.0 | 0.00 | 0.00 | 0.00 | 64 | 1012.6 |
| 20260904034536 | 87 | 152 | 0.0 | 0.9 | 0.00 | 0.00 | 0.00 | 63 | 1012.7 |
| 20260904033038 | 88 | 213 | 0.0 | 0.9 | 0.00 | 0.00 | 0.00 | 63 | 1012.6 |
| 20260904031533 | 88 | 150 | 0.0 | 1.7 | 0.00 | 0.00 | 0.00 | 62 | 1012.5 |
| 20260904030033 | 88 | 252 | 0.0 | 0.9 | 0.00 | 0.00 | 0.00 | 62 | 1012.6 |
| 20260904024533 | 89 | 178 | 0.0 | 0.9 | 0.00 | 0.00 | 0.00 | 61 | 1012.4 |
| 20260904023032 | 89 | 140 | 0.0 | 2.6 | 0.00 | 0.00 | 0.00 | 59 | 1012.4 |
| 20260904021533 | 89 | 153 | 0.0 | 0.9 | 0.00 | 0.00 | 0.00 | 58 | 1012.2 |